Flag for U.S.A. Weather past 2 weeks in Shiprock, New Mexico, U.S.A.

Now
62 °F

Passing clouds.


Feels Like: 62 °F
Forecast: 65 / 88 °F
Wind: 9 mph from Southeast

Location: Four Corners Regional Airport

Current Time: Jul 31, 2015 at 5:24:47 AM

Latest Report: Jul 31, 2015 at 4:53 AM


Visibility: 10 mi

Pressure: 30.15 "Hg (25.29 "Hg at 1492m altitude)

Humidity: 93%

Dew point: 60 °F

Location of ShiprockLocation

Historic Weather in Shiprock — Graph

°F

Shiprock temperature yesterday

Maximum temperature yesterday: 87 °F (at 2:53 PM)
Minimum temperature yesterday: 61 °F (at 3:53 AM)
Average temperature yesterday: 71 °F

Past Weeks' High & Low Weather Summary

 TemperatureHumidityPressure
High92 °F (Jul 25, 3:53 PM)96% (Jul 18, 11:53 PM)30.21 "Hg (Jul 18, 11:53 PM)
Low53 °F (Jul 16, 5:53 AM)7% (Jul 28, 7:53 PM)29.75 "Hg (Jul 27, 6:53 PM)
Average74 °F39%29.97 "Hg
* Reported Jul 16 3:53 AM — Jul 31 3:53 AM, Shiprock, Weather by CustomWeather, © 2015

Note: Actual official high and low records may vary slightly from our data, if they occured in-between our weather recording intervals... More about our weather records

Advertising

Shiprock weather history for previous 24 hours

 ConditionsComfort  
Time TempWeatherWind HumidityBarometerVisibility
3:53 AM
Fri, Jul 31
63 °FClear.8 mph93%30.16 "Hg10 mi
2:53 AM63 °FLight rain. Overcast.6 mph93%30.16 "Hg10 mi
1:53 AM63 °FLight rain. Overcast.6 mph93%30.18 "Hg10 mi
12:53 AM64 °FLight rain. Overcast.6 mph87%30.21 "Hg10 mi
11:53 PM
Thu, Jul 30
64 °FLight rain. Passing clouds.3 mph81%30.21 "Hg10 mi
10:53 PM65 °FClear.9 mph78%30.19 "Hg10 mi
9:53 PM67 °FOvercast.7 mph79%30.16 "Hg10 mi
8:53 PM67 °FOvercast.8 mph85%30.15 "Hg10 mi
7:53 PM66 °FLight rain. Overcast.5 mph84%30.16 "Hg10 mi
6:53 PM65 °FThundershowers. Mostly cloudy.10 mph85%30.16 "Hg10 mi
5:53 PM65 °FStrong thunderstorms. Cloudy.20 mph76%30.16 "Hg2 mi
4:53 PM85 °FThundershowers. Partly sunny.9 mph32%30.05 "Hg10 mi
3:53 PM87 °FPassing clouds.7 mph29%30.07 "Hg10 mi
2:53 PM87 °FSunny.9 mph30%30.09 "Hg10 mi
1:53 PM86 °FScattered clouds.9 mph32%30.12 "Hg10 mi
12:53 PM82 °FSunny.No wind37%30.15 "Hg10 mi
11:53 AM79 °FSunny.No wind42%30.18 "Hg10 mi
10:53 AM78 °FSunny.9 mph43%30.19 "Hg10 mi
9:53 AM73 °FSunny.6 mph50%30.19 "Hg10 mi
8:53 AM70 °FSunny.6 mph53%30.21 "Hg10 mi
7:53 AM66 °FPassing clouds.9 mph54%30.20 "Hg10 mi
6:53 AM62 °FClear.7 mph62%30.19 "Hg10 mi
5:53 AM61 °FClear.7 mph62%30.18 "Hg10 mi
Weather by CustomWeather, © 2015

See weather overviewHow to use our weather pages